Pellston, MI

8:11 AM EDT on July 28, 2017 (GMT -0400)
Pellston Regional Airport Of Emmet County

Weather History for KPLN - March, 2012

Change the Weather History Date:

Wednesday, March 28, 2012

  Actual Average Record
Temperature  
Mean Temperature 47 °F -  
Max Temperature 59 °F 44 °F 68 °F (1981)
Min Temperature 35 °F 22 °F -8 °F (1965)
Degree Days  
Heating Degree Days 18    
Moisture  
Dew Point 35 °F    
Average Humidity 78    
Maximum Humidity 89    
Minimum Humidity 48    
Precipitation  
Precipitation 0.00 in - - ()
Sea Level Pressure  
Sea Level Pressure 29.78 in    
Wind  
Wind Speed 14 mph (WNW)    
Max Wind Speed 21 mph    
Max Gust Speed 31 mph    
Visibility 10 miles    
Events Rain    
Averages and records for this station are not official NWS values.
T = Trace of Precipitation, MM = Missing Value Source: NWS Daily Summary

Daily Weather History Graph

Daily Weather History Graph

Search for Another Location

Airport or City:

Trip Planner

Search our weather history database for the weather conditions in past years. The results will help you decide how hot, cold, wet, or windy it might be!

Date:

Astronomy

Mar. 28, 2012 Rise Set
Actual Time 7:26 AM EDT 8:02 PM EDT
Civil Twilight 6:56 AM EDT 8:32 PM EDT
Nautical Twilight 6:20 AM EDT 9:08 PM EDT
Astronomical Twilight 5:44 AM EDT 9:45 PM EDT
Moon 10:26 AM EDT 1:19 AM EDT
Length of Visible Light 13h 36m
Length of Day
12h 36m
Waxing Crescent, 30% of the Moon is Illuminated
Mar 28
Waxing Crescent
Mar 30
First Quarter
Apr 6
Full
Apr 13
Last Quarter
Apr 21
New

Hourly Weather History & Observations

Time (EDT) Temp. Windchill Dew Point Humidity Pressure Visibility Wind Dir Wind Speed Gust Speed Precip Events Conditions
12:54 AM 59.0 °F - 39.0 °F 48% 29.54 in 10.0 mi SW 16.1 mph 29.9 mph N/A   Overcast
1:54 AM 59.0 °F - 41.0 °F 51% 29.52 in 10.0 mi SW 15.0 mph 21.9 mph N/A   Overcast
2:54 AM 55.9 °F - 44.1 °F 64% 29.51 in 10.0 mi West 18.4 mph 27.6 mph N/A   Overcast
4:54 AM 46.0 °F 41.9 °F 39.9 °F 79% 29.56 in 10.0 mi WNW 8.1 mph - N/A   Overcast
5:54 AM 46.0 °F 44.8 °F 41.0 °F 83% 29.57 in 10.0 mi West 3.5 mph - N/A   Overcast
6:54 AM 46.4 °F 44.3 °F 41.0 °F 81% 29.57 in 10.0 mi West 4.6 mph - N/A   Overcast
7:54 AM 46.9 °F - 39.9 °F 77% 29.60 in 10.0 mi West 8.1 mph - N/A   Overcast
8:42 AM 46.4 °F 41.5 °F 39.2 °F 76% 29.61 in 10.0 mi NW 10.4 mph - N/A   Overcast
8:54 AM 46.0 °F 41.0 °F 39.9 °F 79% 29.63 in 10.0 mi WNW 10.4 mph - N/A   Overcast
9:32 AM 46.4 °F 40.4 °F 37.4 °F 71% 29.63 in 10.0 mi NW 13.8 mph - N/A   Overcast
9:54 AM 45.0 °F 39.3 °F 37.0 °F 74% 29.64 in 10.0 mi WNW 11.5 mph - N/A   Overcast
10:54 AM 42.1 °F 34.9 °F 39.0 °F 89% 29.68 in 7.0 mi WNW 13.8 mph - 0.00 in Rain Light Rain
11:05 AM 42.8 °F 35.8 °F 39.2 °F 87% 29.67 in 5.0 mi NW 13.8 mph 21.9 mph 0.00 in Rain Light Rain
11:22 AM 42.8 °F 36.6 °F 39.2 °F 87% 29.68 in 9.0 mi WNW 11.5 mph 21.9 mph 0.00 in   Overcast
11:31 AM 42.8 °F 36.2 °F 39.2 °F 87% 29.69 in 10.0 mi WNW 12.7 mph - 0.00 in   Overcast
11:40 AM 41.0 °F 32.8 °F 37.4 °F 87% 29.69 in 10.0 mi WNW 16.1 mph 23.0 mph 0.00 in   Overcast
11:54 AM 41.0 °F 32.2 °F 37.0 °F 86% 29.71 in 10.0 mi WNW 18.4 mph 25.3 mph 0.00 in   Overcast
12:54 PM 39.9 °F 30.5 °F 34.0 °F 79% 29.73 in 10.0 mi WNW 19.6 mph 27.6 mph 0.00 in   Overcast
1:33 PM 39.2 °F 29.6 °F 33.8 °F 81% 29.74 in 10.0 mi WNW 19.6 mph 28.8 mph N/A   Overcast
1:54 PM 39.9 °F 31.1 °F 34.0 °F 79% 29.76 in 10.0 mi WNW 17.3 mph 27.6 mph N/A   Overcast
2:01 PM 39.2 °F 29.8 °F 35.6 °F 87% 29.75 in 10.0 mi WNW 18.4 mph 26.5 mph N/A   Overcast
2:54 PM 39.9 °F 30.2 °F 35.1 °F 83% 29.79 in 10.0 mi WNW 20.7 mph 31.1 mph N/A   Overcast
3:37 PM 39.2 °F 29.6 °F 35.6 °F 87% 29.80 in 9.0 mi WNW 19.6 mph 27.6 mph 0.00 in Rain Light Rain
3:54 PM 39.2 °F 29.8 °F 35.6 °F 87% 29.81 in 10.0 mi WNW 18.4 mph - N/A Rain Light Rain
4:54 PM 39.0 °F 29.3 °F 33.1 °F 79% 29.86 in 10.0 mi WNW 19.6 mph 26.5 mph 0.00 in   Overcast
5:54 PM 39.0 °F 29.0 °F 33.1 °F 79% 29.89 in 10.0 mi WNW 20.7 mph 27.6 mph 0.00 in   Overcast
6:19 PM 39.2 °F 29.6 °F 33.8 °F 81% 29.89 in 10.0 mi NW 19.6 mph 29.9 mph 0.00 in   Overcast
6:31 PM 39.2 °F 31.6 °F 33.8 °F 81% 29.89 in 10.0 mi NW 12.7 mph 21.9 mph 0.00 in Rain Light Rain
6:54 PM 39.0 °F 30.6 °F 33.1 °F 79% 29.92 in 10.0 mi NW 15.0 mph - 0.00 in Rain Light Rain
7:15 PM 37.4 °F 28.9 °F 32.0 °F 81% 29.91 in 10.0 mi WNW 13.8 mph 23.0 mph 0.00 in   Overcast
7:54 PM 37.9 °F 30.0 °F 32.0 °F 79% 29.95 in 10.0 mi NW 12.7 mph - 0.00 in   Overcast
8:08 PM 37.4 °F 29.3 °F 30.2 °F 75% 29.94 in 10.0 mi NW 12.7 mph - N/A   Overcast
8:19 PM 37.4 °F 28.9 °F 30.2 °F 75% 29.94 in 10.0 mi NW 13.8 mph - N/A   Overcast
8:54 PM 37.9 °F 29.2 °F 28.9 °F 70% 29.99 in 10.0 mi NW 15.0 mph - N/A   Overcast
9:54 PM 37.9 °F 28.9 °F 28.9 °F 70% 30.01 in 10.0 mi NW 16.1 mph 27.6 mph N/A   Overcast
10:29 PM 37.4 °F 28.9 °F 28.4 °F 70% 30.01 in 10.0 mi NNW 13.8 mph 21.9 mph N/A   Overcast
10:43 PM 37.4 °F 28.2 °F 28.4 °F 70% 30.01 in 10.0 mi North 16.1 mph 25.3 mph N/A   Overcast
10:54 PM 36.0 °F 29.0 °F 30.0 °F 79% 30.04 in 10.0 mi North 9.2 mph - N/A   Overcast
11:03 PM 35.6 °F 28.6 °F 30.2 °F 81% 30.02 in 10.0 mi North 9.2 mph - N/A   Overcast
11:54 PM 36.0 °F 27.5 °F 27.0 °F 70% 30.04 in 10.0 mi North 12.7 mph 19.6 mph N/A   Overcast